Weather History for Franklin, PA

Change the Weather History Date:

Sunday, April 7, 2013

  Actual Average Record
Temperature  
Mean Temperature 56 °F -  
Max Temperature 69 °F 53 °F 81 °F (1929)
Min Temperature 42 °F 31 °F 15 °F (1982)
Degree Days  
Heating Degree Days 10    
Growing Degree Days 6 (Base 50)    
Moisture  
Dew Point 32 °F    
Average Humidity 43    
Maximum Humidity 71    
Minimum Humidity 29    
Precipitation  
Precipitation 0.00 in - - ()
Sea Level Pressure  
Sea Level Pressure 29.91 in    
Wind  
Wind Speed 13 mph (SSW)    
Max Wind Speed 23 mph    
Max Gust Speed 34 mph    
Visibility 10 miles    
Events      
Averages and records for this station are not official NWS values.
T = Trace of Precipitation, MM = Missing Value Source: NWS Daily Summary

Daily Weather History Graph

Daily Weather History Graph

Search for Another Location

Airport:

Trip Planner

Search our weather history database for the weather conditions in past years. The results will help you decide how hot, cold, wet, or windy it might be!

Date:

Astronomy

Apr. 07, 2013 Rise Set
Actual Time 6:52 AM EDT 7:51 PM EDT
Civil Twilight 6:24 AM EDT 8:19 PM EDT
Nautical Twilight 5:50 AM EDT 8:53 PM EDT
Astronomical Twilight 5:15 AM EDT 9:28 PM EDT
Moon 5:10 AM EDT (4/7) 5:20 PM EDT (4/7)
Length of Visible Light 13h 55m
Length of Day
12h 59m
Waning Crescent, 8% of the Moon is Illuminated
Apr 7
Waning Crescent
Apr 10
New
Apr 18
First Quarter
Apr 25
Full
May 2
Last Quarter

Hourly Weather History & Observations

Time (EDT) Temp. Windchill Dew Point Humidity Pressure Visibility Wind Dir Wind Speed Gust Speed Precip Events Conditions
12:15 AM 46.4 °F 41.1 °F 15.8 °F 29% 30.00 in 10.0 mi SE 11.5 mph 19.6 mph N/A   Partly Cloudy
12:35 AM 46.4 °F 41.5 °F 15.8 °F 29% 29.99 in 10.0 mi SSE 10.4 mph 19.6 mph N/A   Partly Cloudy
12:55 AM 46.4 °F 41.9 °F 15.8 °F 29% 29.98 in 10.0 mi SE 9.2 mph 18.4 mph N/A   Partly Cloudy
1:15 AM 46.4 °F 40.7 °F 17.6 °F 32% 29.97 in 10.0 mi SE 12.7 mph 20.7 mph N/A   Clear
1:35 AM 46.4 °F 41.1 °F 17.6 °F 32% 29.97 in 10.0 mi SSE 11.5 mph 18.4 mph N/A   Clear
1:55 AM 46.4 °F 41.9 °F 17.6 °F 32% 29.97 in 10.0 mi SE 9.2 mph - N/A   Clear
2:15 AM 46.4 °F 41.5 °F 17.6 °F 32% 29.96 in 10.0 mi SSE 10.4 mph - N/A   Clear
2:35 AM 46.4 °F 41.1 °F 19.4 °F 34% 29.95 in 10.0 mi SSE 11.5 mph - N/A   Clear
2:55 AM 46.4 °F 41.1 °F 19.4 °F 34% 29.94 in 10.0 mi SSE 11.5 mph - N/A   Scattered Clouds
3:15 AM 46.4 °F 40.7 °F 19.4 °F 34% 29.93 in 10.0 mi SSE 12.7 mph 20.7 mph N/A   Partly Cloudy
3:35 AM 48.2 °F - 21.2 °F 34% 29.93 in 10.0 mi SSE 13.8 mph - N/A   Clear
3:55 AM 48.2 °F - 21.2 °F 34% 29.92 in 10.0 mi South 15.0 mph 24.2 mph N/A   Clear
4:15 AM 48.2 °F - 21.2 °F 34% 29.91 in 10.0 mi SSE 17.3 mph - N/A   Clear
4:35 AM 48.2 °F - 23.0 °F 37% 29.90 in 10.0 mi SSE 18.4 mph 25.3 mph N/A   Clear
4:55 AM 48.2 °F - 24.8 °F 40% 29.90 in 10.0 mi South 16.1 mph 23.0 mph N/A   Clear
5:15 AM 48.2 °F - 24.8 °F 40% 29.91 in 10.0 mi South 15.0 mph 21.9 mph N/A   Mostly Cloudy
5:35 AM 50.0 °F - 24.8 °F 37% 29.90 in 10.0 mi South 15.0 mph 23.0 mph N/A   Mostly Cloudy
5:55 AM 51.8 °F - 26.6 °F 38% 29.89 in 10.0 mi South 18.4 mph 25.3 mph N/A   Partly Cloudy
6:15 AM 51.8 °F - 28.4 °F 41% 29.89 in 10.0 mi South 17.3 mph 24.2 mph N/A   Clear
6:35 AM 51.8 °F - 28.4 °F 41% 29.89 in 10.0 mi South 15.0 mph 24.2 mph N/A   Scattered Clouds
6:55 AM 51.8 °F - 28.4 °F 41% 29.88 in 10.0 mi South 19.6 mph 25.3 mph N/A   Scattered Clouds
7:15 AM 51.8 °F - 28.4 °F 41% 29.88 in 10.0 mi South 18.4 mph 24.2 mph N/A   Clear
7:35 AM 51.8 °F - 28.4 °F 41% 29.88 in 10.0 mi South 18.4 mph 23.0 mph N/A   Clear
7:55 AM 51.8 °F - 30.2 °F 44% 29.88 in 10.0 mi South 16.1 mph 27.6 mph N/A   Clear
8:15 AM 53.6 °F - 30.2 °F 41% 29.87 in 10.0 mi South 16.1 mph 24.2 mph N/A   Clear
8:35 AM 53.6 °F - 30.2 °F 41% 29.87 in 10.0 mi South 20.7 mph 26.5 mph N/A   Clear
8:55 AM 55.4 °F - 32.0 °F 41% 29.86 in 10.0 mi South 21.9 mph 27.6 mph N/A   Scattered Clouds
9:15 AM 55.4 °F - 32.0 °F 41% 29.86 in 10.0 mi South 20.7 mph 28.8 mph N/A   Overcast
9:35 AM 57.2 °F - 33.8 °F 41% 29.86 in 10.0 mi South 19.6 mph 28.8 mph N/A   Overcast
9:55 AM 57.2 °F - 33.8 °F 41% 29.86 in 10.0 mi SSW 16.1 mph 31.1 mph N/A   Overcast
10:15 AM 57.2 °F - 33.8 °F 41% 29.86 in 10.0 mi SSW 15.0 mph 25.3 mph N/A   Overcast
10:35 AM 60.8 °F - 35.6 °F 39% 29.86 in 10.0 mi SSW 18.4 mph 27.6 mph N/A   Mostly Cloudy
10:55 AM 60.8 °F - 35.6 °F 39% 29.85 in 10.0 mi SSW 17.3 mph 29.9 mph N/A   Mostly Cloudy
11:15 AM 60.8 °F - 35.6 °F 39% 29.86 in 10.0 mi SSW 19.6 mph 31.1 mph N/A   Overcast
11:35 AM 62.6 °F - 35.6 °F 37% 29.87 in 10.0 mi SSW 15.0 mph 27.6 mph N/A   Scattered Clouds
11:55 AM 62.6 °F - 37.4 °F 39% 29.87 in 10.0 mi SW 15.0 mph 24.2 mph N/A   Scattered Clouds
12:15 PM 62.6 °F - 37.4 °F 39% 29.87 in 10.0 mi SW 19.6 mph 31.1 mph N/A   Clear
12:35 PM 64.4 °F - 37.4 °F 37% 29.87 in 10.0 mi SW 21.9 mph 34.5 mph N/A   Partly Cloudy
12:55 PM 64.4 °F - 39.2 °F 40% 29.87 in 10.0 mi SW 20.7 mph 27.6 mph N/A   Partly Cloudy
1:15 PM 66.2 °F - 39.2 °F 37% 29.86 in 10.0 mi SSW 20.7 mph 27.6 mph N/A   Clear
1:35 PM 66.2 °F - 39.2 °F 37% 29.86 in 10.0 mi SSW 21.9 mph 31.1 mph N/A   Scattered Clouds
1:55 PM 68.0 °F - 39.2 °F 35% 29.86 in 10.0 mi SSW 23.0 mph 28.8 mph N/A   Scattered Clouds
2:15 PM 68.0 °F - 39.2 °F 35% 29.86 in 10.0 mi SW 17.3 mph 31.1 mph N/A   Mostly Cloudy
2:35 PM 66.2 °F - 39.2 °F 37% 29.86 in 10.0 mi SW 18.4 mph 26.5 mph N/A   Overcast
2:55 PM 66.2 °F - 39.2 °F 37% 29.86 in 10.0 mi SW 18.4 mph 27.6 mph N/A   Overcast
3:15 PM 68.0 °F - 39.2 °F 35% 29.86 in 10.0 mi WSW 12.7 mph 27.6 mph N/A   Mostly Cloudy
3:35 PM 69.8 °F - 39.2 °F 33% 29.85 in 10.0 mi WSW 16.1 mph 27.6 mph N/A   Scattered Clouds
3:55 PM 68.0 °F - 37.4 °F 33% 29.86 in 10.0 mi WSW 20.7 mph 27.6 mph N/A   Overcast
4:15 PM 68.0 °F - 37.4 °F 33% 29.86 in 10.0 mi WSW 16.1 mph 23.0 mph N/A   Overcast
4:35 PM 68.0 °F - 37.4 °F 33% 29.86 in 10.0 mi West 13.8 mph 23.0 mph N/A   Overcast
4:55 PM 66.2 °F - 37.4 °F 35% 29.87 in 10.0 mi WSW 9.2 mph 18.4 mph N/A   Overcast
5:15 PM 66.2 °F - 39.2 °F 37% 29.87 in 10.0 mi WSW 11.5 mph 19.6 mph N/A   Overcast
5:35 PM 66.2 °F - 41.0 °F 40% 29.88 in 10.0 mi West 12.7 mph 17.3 mph N/A   Mostly Cloudy
5:55 PM 66.2 °F - 42.8 °F 43% 29.89 in 10.0 mi NW 9.2 mph 17.3 mph N/A   Scattered Clouds
6:15 PM 64.4 °F - 42.8 °F 45% 29.91 in 10.0 mi WNW 11.5 mph 16.1 mph N/A   Clear
6:35 PM 62.6 °F - 42.8 °F 48% 29.92 in 10.0 mi NW 8.1 mph 17.3 mph N/A   Clear
6:55 PM 60.8 °F - 41.0 °F 48% 29.93 in 10.0 mi WNW 11.5 mph 18.4 mph N/A   Clear
7:15 PM 59.0 °F - 41.0 °F 51% 29.94 in 10.0 mi NW 10.4 mph 16.1 mph N/A   Clear
7:35 PM 57.2 °F - 41.0 °F 55% 29.95 in 10.0 mi NW 8.1 mph - N/A   Clear
7:55 PM 55.4 °F - 39.2 °F 54% 29.96 in 10.0 mi NW 10.4 mph 17.3 mph N/A   Clear
8:15 PM 53.6 °F - 39.2 °F 58% 29.97 in 10.0 mi WNW 9.2 mph 16.1 mph N/A   Clear
8:35 PM 51.8 °F - 37.4 °F 58% 29.98 in 10.0 mi WNW 8.1 mph - N/A   Clear
8:55 PM 51.8 °F - 37.4 °F 58% 29.99 in 10.0 mi WNW 6.9 mph - N/A   Clear
9:15 PM 50.0 °F - 37.4 °F 62% 29.99 in 10.0 mi WNW 5.8 mph - N/A   Clear
9:35 PM 48.2 °F - 37.4 °F 66% 30.00 in 10.0 mi NW 5.8 mph - N/A   Clear
9:55 PM 48.2 °F - 37.4 °F 66% 30.01 in 10.0 mi NNW 4.6 mph - N/A   Clear
10:15 PM 46.4 °F 45.2 °F 35.6 °F 66% 30.01 in 10.0 mi NNW 3.5 mph - N/A   Clear
10:35 PM 44.6 °F 42.2 °F 35.6 °F 71% 30.01 in 10.0 mi North 4.6 mph - N/A   Clear
10:55 PM 44.6 °F - 33.8 °F 66% 30.01 in 10.0 mi Calm Calm - N/A   Clear
11:15 PM 42.8 °F 41.1 °F 33.8 °F 70% 30.01 in 10.0 mi North 3.5 mph - N/A   Clear
11:35 PM 42.8 °F 41.1 °F 33.8 °F 70% 30.02 in 10.0 mi North 3.5 mph - N/A   Clear
11:55 PM 42.8 °F 41.1 °F 33.8 °F 70% 30.02 in 10.0 mi North 3.5 mph - N/A   Clear